Probability
0 0 0 0 0 0 0 0 0 0 0 0 2 4 3 1 0 1 0 0 2 3 4 6 9 12 12 11 12 13 12 9 8 7 8 9 10 8 6 5 6 6 5 4 4 6 6 6 7
0 0 0 0 0 0 0 0 0 0 0 1 3 5 3 1 1 2 1 0 2 3 4 7 13 16 16 14 14 13 12 10 9 8 7 8 9 9 7 5 5 5 5 4 4 5 6 6 6
0 0 0 0 0 0 0 0 0 0 1 3 6 6 3 1 2 3 2 2 2 3 4 9 17 20 20 18 16 15 14 12 11 8 6 6 7 8 7 6 5 5 4 4 4 5 6 5 5
0 0 0 0 0 0 0 0 0 0 1 5 8 7 4 2 3 5 5 5 4 4 5 10 17 21 21 21 19 17 17 16 14 9 6 6 7 7 7 8 7 5 5 6 5 5 6 5 5
0 0 0 0 0 0 0 0 0 1 2 5 8 8 5 4 5 6 8 8 7 5 6 10 17 21 22 22 21 21 21 19 16 12 9 8 9 8 7 7 7 6 7 8 7 7 7 8 7
0 0 0 0 0 0 0 0 1 3 4 5 7 7 6 4 5 7 9 10 9 9 9 11 16 21 22 23 22 22 22 19 14 12 11 10 10 8 7 7 7 8 8 9 9 8 8 10 10
0 0 0 0 0 0 0 0 1 4 5 5 6 7 6 5 5 6 10 12 12 12 13 14 16 19 21 22 21 20 18 16 14 12 11 9 7 5 6 7 7 8 10 10 9 7 7 9 10
0 0 0 0 0 0 0 0 1 4 5 5 6 7 8 8 8 9 13 15 14 14 15 16 16 18 18 19 19 17 14 13 14 14 13 10 6 3 3 5 7 9 9 9 9 8 8 8 9
0 0 0 0 0 0 0 0 1 3 5 6 7 9 10 11 13 15 16 16 15 14 14 15 17 17 17 17 17 15 12 11 13 15 15 11 5 2 1 3 6 8 9 9 10 11 9 7 7
0 0 0 0 0 0 1 1 1 2 4 7 10 12 13 15 18 19 18 15 14 13 13 14 17 18 17 16 15 13 11 9 11 13 13 9 5 2 2 3 4 6 8 10 11 10 9 8 7
0 0 0 0 0 0 2 3 2 1 3 9 14 17 17 17 19 20 18 14 12 11 11 12 16 18 17 16 14 13 11 9 9 11 10 7 4 3 3 3 3 3 5 7 7 8 8 8 7
0 0 0 0 1 2 5 5 4 3 7 14 20 21 19 18 19 19 17 14 13 11 10 10 13 16 16 15 14 13 11 9 8 8 7 5 4 3 3 3 3 3 3 4 4 5 6 6 5
0 0 0 1 2 4 7 7 6 7 12 18 22 22 20 18 17 17 15 14 13 11 8 7 8 11 12 12 12 12 12 11 8 6 5 4 3 3 3 3 3 3 3 3 4 5 5 4 3
0 0 0 1 3 5 7 7 6 9 14 18 20 22 21 18 15 15 14 12 11 9 6 4 4 5 8 10 11 11 13 13 10 7 6 4 3 3 3 3 3 3 3 3 4 5 5 4 3
0 0 0 1 3 5 6 6 6 10 15 18 19 21 20 16 14 14 13 12 11 9 6 3 2 3 6 10 11 12 13 14 11 9 7 5 4 3 3 3 3 3 3 3 3 4 4 4 3
0 0 0 1 3 4 5 6 8 11 16 19 21 21 19 16 15 15 14 13 12 9 6 3 2 2 5 9 10 10 11 12 11 8 6 5 4 3 3 3 3 3 3 3 3 4 4 4 3
0 0 0 1 2 3 4 5 7 11 15 19 20 20 18 17 16 15 15 13 11 7 4 4 3 4 5 7 7 7 8 8 8 6 4 3 3 3 3 3 3 3 3 3 3 3 4 3 3
0 0 0 1 2 4 4 5 6 9 12 15 16 16 17 17 15 14 13 13 10 6 4 5 5 5 6 6 6 6 6 6 5 4 3 2 2 2 2 2 3 3 3 3 3 3 3 3 3
0 0 0 0 2 5 5 5 5 8 9 11 12 12 14 15 12 11 12 12 9 6 6 7 7 7 6 5 5 6 6 5 5 5 4 3 3 2 1 1 2 3 3 3 3 3 3 3 3
0 0 0 1 3 5 5 3 4 7 9 10 11 10 11 12 11 10 11 11 9 7 6 8 8 8 6 4 4 6 6 6 7 7 6 4 3 2 1 1 1 1 2 3 3 3 3 3 3
0 0 0 1 3 4 2 1 3 6 8 10 11 10 11 11 10 10 12 12 11 9 7 7 7 7 6 4 3 4 5 7 8 8 6 4 3 3 3 2 1 0 1 1 2 3 3 2 3
0 0 0 1 2 2 1 0 2 5 8 10 11 10 10 10 9 10 12 13 13 11 8 5 4 5 4 3 2 3 5 6 7 7 5 3 3 3 3 3 2 1 0 0 1 1 2 3 3
0 0 0 0 1 1 0 0 1 4 7 9 9 8 7 7 8 10 11 13 13 10 6 4 3 3 3 3 2 3 3 4 5 5 4 3 3 3 3 3 2 1 0 0 0 0 1 2 2
0 0 0 0 0 0 0 0 1 2 5 8 8 7 6 5 7 8 10 11 11 8 5 4 4 3 3 3 3 2 1 1 3 4 3 3 3 3 3 2 1 0 0 0 0 0 0 1 1
0 0 0 0 0 0 0 0 1 2 4 6 6 6 5 5 6 8 9 10 11 9 7 6 6 4 4 4 2 1 0 1 2 3 3 2 2 2 2 1 0 0 0 0 0 0 0 0 0
0 0 0 0 0 0 0 1 1 2 4 4 4 4 4 5 8 10 11 11 11 10 9 9 8 6 4 3 1 0 0 0 1 2 2 1 0 1 1 0 0 0 0 0 0 0 0 0 0
0 0 0 0 0 0 0 1 1 3 3 3 3 3 3 5 9 12 13 13 11 10 10 11 9 6 2 1 0 0 0 0 1 1 1 0 0 0 0 0 0 0 0 0 0 0 0 0 0
0 0 0 0 0 0 0 0 2 3 3 3 3 3 4 5 9 11 13 13 11 9 10 11 8 4 1 0 0 0 0 0 0 0 0 0 0 0 0 0 0 0 0 0 0 0 0 0 0
0 0 0 0 0 0 0 0 2 3 3 3 3 3 4 6 8 9 10 11 10 9 9 9 6 3 1 0 0 0 0 0 0 0 0 0 0 0 0 0 0 0 0 0 0 0 0 0 0
0 0 0 0 0 0 0 1 2 3 3 3 3 2 3 5 7 8 8 8 9 9 8 7 5 3 1 0 0 0 0 0 0 0 0 0 0 0 0 0 0 0 0 0 0 0 0 0 0
Wind_Speed
4 3 2 2 4 4 2 4 2 0 2 3 6 8 7 5 4 5 3 10 13 11 8 10 13 14 14 14 13 12 12 12 11 11 11 10 10 10 9 10 10 10 9 9 8 8 7 7 6
2 3 2 3 4 1 4 3 1 2 4 4 6 8 7 5 5 8 6 10 13 12 8 10 13 14 14 14 13 12 12 12 11 10 10 10 10 9 9 9 9 8 8 8 7 7 6 6 5
2 2 3 3 2 3 4 2 2 2 4 3 3 5 5 5 6 6 8 14 12 10 8 10 14 14 14 13 12 12 11 11 10 10 9 9 8 8 8 8 8 7 7 7 6 6 5 5 5
1 3 3 3 3 5 5 4 2 2 3 4 6 5 3 3 5 9 14 14 13 9 8 10 14 14 13 13 12 12 11 11 10 10 9 8 8 7 7 6 6 6 6 6 6 6 5 5 4
3 3 3 1 4 5 4 4 3 4 3 4 7 5 3 3 11 15 14 14 13 9 7 9 13 13 13 12 11 11 10 10 9 9 8 7 7 6 5 5 5 5 5 5 5 5 5 4 4
3 3 2 2 4 4 2 1 4 5 6 5 8 6 2 4 12 13 13 11 11 11 8 7 12 13 12 12 11 10 9 9 8 7 7 6 5 5 4 4 4 4 5 5 5 4 4 4 4
3 2 2 3 3 3 2 1 5 6 6 5 7 6 3 4 9 11 11 10 9 9 8 6 6 8 10 11 10 9 8 8 7 7 6 5 5 4 4 4 4 4 4 4 5 5 5 5 4
5 3 2 2 2 3 1 2 3 6 6 6 6 7 6 7 9 11 10 9 9 7 6 6 5 5 5 6 8 8 8 7 7 6 6 5 4 4 4 4 5 5 5 5 5 5 5 4 5
3 3 3 4 3 2 0 3 2 4 6 4 3 5 9 13 13 12 9 7 7 7 5 5 5 4 4 4 6 6 6 5 4 4 4 3 1 1 2 4 5 5 6 6 6 5 6 5 5
4 4 8 5 4 3 1 3 4 3 5 5 7 9 13 13 13 12 11 9 7 7 6 4 5 5 4 4 3 2 3 2 2 2 2 2 1 1 1 1 2 3 3 5 5 6 5 4 2
4 6 6 5 5 4 3 1 3 6 3 7 12 14 13 12 11 11 10 9 8 8 7 5 5 5 4 3 3 2 1 2 2 2 2 2 1 0 0 0 1 1 2 2 2 3 2 2 1
3 7 6 5 4 3 4 2 2 3 6 9 13 15 13 12 10 10 9 8 8 8 7 6 5 5 4 3 3 2 2 2 2 2 2 2 1 1 0 0 0 1 1 1 1 1 2 2 2
4 7 7 7 4 3 3 3 4 4 8 12 13 13 13 12 10 8 9 8 8 8 6 6 5 5 4 3 2 3 2 3 2 2 2 2 2 1 1 1 1 1 1 1 1 1 1 1 2
5 5 6 5 3 2 3 2 4 4 9 13 13 11 11 11 10 8 7 7 7 7 6 5 5 4 4 3 2 2 2 2 2 2 2 3 2 2 1 1 1 1 1 1 1 1 1 1 1
2 5 7 3 1 1 3 1 4 8 11 12 12 11 10 9 10 9 9 8 8 7 6 5 5 3 3 3 3 2 2 2 2 2 2 2 2 2 2 1 1 1 1 1 0 0 0 1 1
4 3 4 6 2 2 5 4 5 8 11 11 10 11 10 8 9 9 8 7 6 6 5 5 5 4 3 3 2 2 2 2 2 1 1 1 1 1 2 1 1 1 1 0 1 0 0 1 1
3 1 5 7 3 1 3 4 5 8 11 10 9 9 9 8 7 7 8 8 6 6 6 4 4 4 3 2 2 2 2 1 1 1 1 1 0 1 1 1 1 1 0 0 1 0 1 1 1
4 3 5 5 5 1 2 2 5 7 9 11 10 8 8 8 8 8 8 7 6 5 5 4 4 3 3 2 2 1 1 1 1 1 1 1 0 1 1 1 0 0 1 0 0 1 0 1 1
5 5 6 7 5 0 2 3 5 6 6 8 9 9 8 8 7 7 7 7 6 5 5 4 4 3 2 1 1 1 1 1 0 1 1 1 1 1 1 1 0 1 1 1 1 0 1 1 0
5 5 6 6 4 1 1 2 4 6 8 8 9 9 9 7 6 6 7 6 6 5 4 4 4 3 2 2 1 2 2 1 1 1 1 1 1 1 1 1 1 0 0 0 0 0 0 1 0
6 6 6 5 3 2 2 2 2 2 3 6 7 7 9 10 9 8 7 6 6 6 6 4 4 3 2 2 1 1 1 1 1 0 1 1 1 1 1 1 1 1 1 1 1 1 2 1 1
7 8 6 4 0 2 1 2 5 3 3 5 7 6 8 8 8 7 7 6 6 6 5 5 4 3 2 3 3 3 2 1 2 1 1 1 1 1 1 1 1 1 1 1 2 1 2 2 1
7 6 3 3 2 1 1 2 5 1 2 4 6 8 8 8 9 8 7 7 6 5 5 4 3 3 2 3 3 3 2 1 1 1 0 1 1 0 0 0 0 1 1 1 1 1 1 2 2
3 2 4 4 4 2 4 3 5 4 6 5 5 7 7 8 8 7 7 6 4 4 4 4 3 2 2 2 3 3 3 2 2 1 0 0 1 1 1 1 0 1 1 1 2 1 1 1 2
2 4 3 4 3 4 3 2 5 4 4 7 8 8 7 8 8 7 7 6 6 6 6 5 5 3 2 2 3 3 3 3 3 2 2 1 0 1 2 1 1 1 1 1 1 1 1 1 1
3 7 6 4 4 4 3 2 4 2 2 3 4 6 7 8 8 8 9 8 8 7 6 5 5 4 3 3 3 3 3 2 2 2 2 2 2 2 2 1 1 1 1 0 0 0 1 1 1
2 2 6 6 2 0 3 2 3 0 1 3 4 5 6 7 8 8 8 8 7 6 6 6 6 4 4 4 3 3 3 3 2 2 1 1 1 2 1 0 0 0 0 0 0 0 1 1 1
5 5 4 5 3 2 2 3 5 6 6 5 4 4 5 6 6 6 7 7 6 6 5 5 5 5 4 4 3 3 3 3 3 2 1 1 1 0 1 1 0 0 0 0 0 1 1 0 1
1 2 4 3 4 5 3 6 5 8 7 6 5 5 6 7 6 5 5 5 5 5 5 5 5 4 3 3 3 3 2 3 2 2 2 1 1 1 1 1 0 0 0 0 0 1 0 0 1
4 5 6 4 3 3 3 6 4 5 5 5 4 5 6 7 7 6 6 5 5 5 5 5 5 5 4 4 3 3 2 3 2 1 1 1 1 1 1 0 1 1 0 0 0 1 1 0 1
Wind_Direction
195 181 135 74 52 45 274 250 179 323 6 44 76 87 89 76 115 143 154 140 137 142 147 138 128 124 121 119 118 117 118 119 118 117 117 117 118 120 123 125 129 131 133 134 134 135 139 141 142
177 163 83 62 77 27 278 242 159 146 145 113 77 85 80 74 91 115 127 142 141 143 143 141 133 127 125 124 123 122 123 124 125 125 126 123 123 127 128 128 132 137 140 141 143 144 147 153 157
207 170 103 79 120 195 237 220 149 120 108 98 89 67 78 107 118 136 151 145 139 139 140 142 136 131 130 130 130 128 127 127 129 131 129 128 129 131 131 135 139 145 150 152 154 157 159 164 169
86 57 56 78 242 234 217 225 188 110 52 66 93 71 66 109 133 137 141 142 137 139 141 146 141 138 137 138 136 134 132 133 134 135 134 134 136 135 135 143 148 153 157 163 167 172 175 179 185
77 82 52 332 259 253 237 206 185 107 94 85 97 94 61 61 114 130 140 143 141 141 143 151 147 145 143 142 141 138 137 135 136 137 137 137 137 136 141 149 158 165 170 172 178 183 186 192 196
57 79 79 272 266 275 278 206 141 117 112 111 105 104 84 117 128 138 140 143 144 144 146 150 150 146 146 146 146 145 142 140 141 140 141 141 139 142 149 162 171 181 185 186 192 199 201 209 215
133 111 202 235 267 283 266 120 114 123 134 142 129 114 127 134 136 132 134 136 135 140 145 146 148 148 148 149 148 145 146 149 150 149 150 150 150 159 170 179 185 192 193 196 204 213 225 227 228
157 107 295 263 243 266 274 92 128 133 136 139 136 136 161 165 136 124 121 123 125 133 142 142 136 138 142 145 151 149 152 158 158 159 162 160 169 179 190 194 205 211 213 217 222 227 236 239 241
123 80 265 247 204 237 272 91 77 88 114 128 112 134 147 142 125 121 120 118 126 129 131 136 136 137 145 149 155 155 159 161 155 161 163 157 162 196 206 216 218 218 224 231 236 243 245 249 252
128 174 233 229 201 186 201 149 143 110 113 108 97 105 125 129 128 132 139 142 145 145 148 147 147 144 145 150 135 143 154 146 147 154 153 147 155 214 208 235 234 239 243 253 251 254 254 253 248
180 207 241 253 234 183 176 195 131 133 148 161 146 142 140 134 133 138 146 151 153 153 151 157 157 152 149 148 145 146 144 146 156 159 157 151 152 161 122 84 278 269 256 262 269 270 270 261 239
236 254 249 255 247 186 176 163 114 149 165 155 148 144 144 142 146 147 148 150 145 143 149 156 161 158 160 148 148 155 153 159 175 177 159 149 150 144 143 157 230 246 247 247 252 252 262 268 247
253 265 268 262 245 218 171 162 133 124 129 134 133 134 141 145 148 145 145 147 142 140 146 149 153 158 162 153 163 158 166 176 185 184 173 160 156 161 184 202 205 228 227 216 232 237 246 260 255
251 274 283 270 256 204 143 134 111 154 138 137 138 147 149 149 145 139 143 147 148 149 155 155 148 163 158 157 161 164 168 170 171 180 186 168 162 169 177 198 215 252 250 227 219 229 241 253 255
311 325 314 288 262 204 110 56 164 162 143 144 151 156 152 147 145 153 161 159 157 155 149 149 146 140 147 150 152 153 162 157 167 182 183 172 170 170 165 175 222 252 265 253 267 296 332 291 278
358 360 306 287 250 221 129 204 200 164 147 150 158 159 152 151 154 156 155 155 152 144 140 140 137 126 127 134 140 143 148 153 169 163 156 150 161 158 146 160 231 252 258 237 216 211 281 296 288
5 303 275 289 268 215 137 199 193 173 155 159 162 159 152 148 146 153 157 155 152 147 146 139 130 130 133 136 133 135 144 153 159 147 139 148 132 123 132 167 233 244 94 265 250 218 192 254 284
242 256 279 277 280 250 151 203 191 180 163 164 164 155 153 159 166 163 161 153 152 152 145 137 130 134 133 122 108 102 102 125 135 154 169 175 150 114 120 150 180 126 92 355 306 283 277 238 257
218 252 272 277 286 166 181 184 203 191 167 159 159 160 165 172 174 158 155 151 146 145 142 143 136 141 132 123 133 142 168 165 150 194 181 178 170 151 134 124 83 80 131 213 222 202 280 292 326
235 253 269 286 294 161 157 242 218 187 179 169 161 162 164 165 159 157 158 154 150 149 153 151 149 152 154 161 169 171 169 177 180 210 219 218 190 181 159 145 148 150 164 280 225 167 197 281 119
249 231 237 250 320 25 100 330 256 210 167 163 164 163 161 162 163 163 156 155 151 154 160 162 164 160 166 149 113 95 74 50 41 346 286 278 221 171 160 164 169 185 174 214 231 198 171 240 278
247 240 223 218 159 279 142 261 270 217 187 178 171 162 165 161 159 163 160 162 167 171 162 162 163 165 172 153 143 151 156 174 218 214 244 295 297 165 158 153 181 196 192 212 238 208 192 180 235
225 245 237 194 155 301 288 187 275 190 197 199 177 173 171 169 168 168 167 167 167 165 161 162 156 164 171 166 161 157 160 183 198 176 163 330 337 314 223 177 191 205 212 225 241 239 207 186 193
202 16 6 45 69 299 256 184 255 222 198 188 181 180 173 171 173 171 163 154 154 158 160 157 157 176 179 163 158 155 161 164 143 143 167 318 329 322 314 281 244 220 219 231 237 228 212 203 200
102 91 27 1 358 256 267 165 249 247 191 175 174 181 176 172 173 173 162 162 170 170 168 167 165 175 178 164 165 163 169 168 170 185 189 201 265 273 271 278 247 231 228 223 217 231 248 214 201
204 142 158 202 232 271 327 234 258 238 176 147 160 172 169 172 175 175 173 173 175 173 171 170 170 167 168 167 174 167 162 164 174 191 192 197 214 233 243 242 233 232 235 242 161 195 239 218 218
155 179 172 149 171 216 284 290 307 139 131 146 157 160 167 172 173 176 173 174 174 174 175 173 169 163 173 176 173 171 172 164 170 186 185 200 219 226 221 208 223 289 13 84 151 216 253 241 234
153 157 99 117 153 233 256 231 218 205 205 192 171 161 163 166 170 170 164 168 172 175 174 169 168 173 178 175 174 169 176 173 175 168 175 185 211 162 115 96 117 340 344 347 139 231 249 227 256
142 107 104 114 151 161 223 257 229 200 197 186 180 173 166 160 162 165 165 166 163 160 166 169 169 168 174 176 169 162 170 166 164 170 190 177 150 127 139 164 77 41 334 288 164 259 266 210 289
180 165 139 146 216 174 175 260 272 188 174 161 164 167 158 156 159 160 157 154 153 164 171 170 170 174 182 178 170 168 160 146 144 163 180 141 131 145 153 101 42 7 360 336 251 242 304 278 299